Regional Weather Roundup
Issued by NWS

Home | Current Version | Previous Version | Graphics & Text | Print | Product List | Glossary Off
Versions: 1 2 3 4 5 6 7 8 9 10 11 12 13 14 15 16 17 18 19 20 21 22 23 24 25 26 27 28 29 30 31 32 33 34 35 36 37 38 39 40 41 42 43 44 45 46 47 48 49 50

000
ASUS43 KTOP 230408
RWRKS

WEATHER ROUNDUP FOR KANSAS
NATIONAL WEATHER SERVICE GOODLAND KS
1100 PM CDT MON AUG 22 2016

NOTE:  "FAIR" INDICATES FEW OR NO CLOUDS BELOW 12,000 FEET WITH NO
SIGNIFICANT WEATHER AND/OR OBSTRUCTIONS TO VISIBILITY.

KSZ001>006-013>018-027>032-041>047-230500-
NORTHWEST KANSAS

CITY           SKY/WX    TMP DP  RH WIND       PRES   REMARKS
GOODLAND       CLOUDY    68  62  81 E9        29.93S THUNDER
HAYS           CLEAR     75  48  38 S16       29.96S
HILL CITY      CLOUDY    78  55  44 S14G24    29.92F
RUSSELL        CLEAR     72  58  61 SE16      29.96S
$$

KSZ061>065-074>080-084>089-230500-
SOUTHWEST KANSAS

CITY           SKY/WX    TMP DP  RH WIND       PRES   REMARKS
DODGE CITY     CLEAR     76  58  53 S20G29    29.99R
ELKHART          N/A     74  58  57 S20         N/A
GARDEN CITY    CLOUDY    74  59  59 S15G23    29.97R
GREAT BEND     CLEAR     72  52  49 SE10      29.98S
LIBERAL        CLEAR     75  59  57 SE20G25   30.00R
PRATT          CLEAR     73  55  54 S12       30.01S
$$

KSZ066>073-081>083-090>101-230500-
SOUTHEAST KANSAS

CITY           SKY/WX    TMP DP  RH WIND       PRES   REMARKS
CHANUTE        CLEAR     70  63  78 SE8       30.07R
COFFEYVILLE    CLEAR     73  65  75 SE10      30.07S
HUTCHINSON     CLEAR     74  60  61 SE12      30.01S
MEDICINE LODGE   N/A     77  64  64 S10       30.00S
NEWTON         PTCLDY    71  61  70 SE13      30.04R
PARSONS        CLEAR     75  64  68 S9        30.08S
WICHITA INTL   PTCLDY    75  62  64 SE15      30.02R
WICHITA JABRA  PTCLDY    74  64  71 SE16      30.02S
WICHITA MCCONL PTCLDY    74  63  67 S14       30.03S
WINFIELD       CLEAR     74  67  78 SE8       30.05S
$$

KSZ007>012-019>026-033>040-048>060-102>105-230500-
NORTHEAST KANSAS

CITY           SKY/WX    TMP DP  RH WIND       PRES   REMARKS
CONCORDIA      PTCLDY    71  58  63 SE12      30.00R
EMPORIA        PTCLDY    70  63  78 SE8       30.05R
LAWRENCE       PTCLDY    65  62  90 SE6       30.06S
MANHATTAN      PTCLDY    71  63  75 S5        30.02R
MARYSVILLE     CLOUDY    72  63  73 S9        30.01S
OLATHE IND     CLEAR     70  60  70 SE9       30.08S
OLATHE EXE     CLEAR     68  60  75 SE6       30.08S
SALINA         CLEAR     74  60  61 SE13      29.99F
TOPEKA BILLARD MOCLDY    71  62  73 SE8       30.05S
TOPEKA FORBES  PTCLDY    72  62  71 SE9       30.05S
$$




USA.gov is the U.S. government's official web portal to all federal, state and local government web resources and services.